OE-11344 Weather Reports


time (UTC)temp
F
wind
direction
speed
knots
gust
knots
rain 1hr
in
rain 24hr
in
rain mn
in
humidity
%
barometer
mb
20260903084125 58 278 3.5 5.2 0.00 0.12 0.00 62 858.1
20260903083513 58 276 4.3 7.8 0.00 0.12 0.00 60 858.1
20260903082513 58 282 3.5 5.2 0.00 0.12 0.00 59 857.9
20260903081126 60 254 0.9 3.5 0.00 0.12 0.00 65 857.9
20260903080513 59 176 0.9 3.5 0.00 0.12 0.00 63 857.9
20260903075513 59 127 0.0 2.6 0.00 0.12 0.00 64 857.9
20260903074126 58 100 1.7 4.3 0.00 0.12 0.00 64 857.9
20260903073512 56 95 2.6 4.3 0.00 0.12 0.00 64 857.9
20260903072512 54 92 3.5 5.2 0.00 0.12 0.00 70 857.9
20260903071126 53 97 3.5 6.1 0.00 0.12 0.00 74 857.9
20260903070513 55 91 3.5 5.2 0.00 0.12 0.00 66 857.9
20260903065513 53 81 2.6 4.3 0.00 0.12 0.00 72 858.0
20260903064125 51 77 2.6 3.5 0.00 0.12 0.00 80 857.9
20260903063512 51 66 1.7 3.5 0.00 0.12 0.00 79 857.9
20260903062513 51 72 1.7 2.6 0.00 0.12 0.00 80 857.9
20260903061126 51 81 2.6 3.5 0.00 0.12 0.00 79 857.8
20260903060513 50 71 2.6 3.5 0.00 0.12 0.00 81 857.8
20260903055512 50 86 1.7 4.3 0.00 0.12 0.00 80 857.8
20260903054125 51 73 2.6 4.3 0.00 0.12 0.00 76 857.8
20260903053513 50 81 1.7 3.5 0.00 0.12 0.00 80 857.7
20260903052513 50 67 1.7 2.6 0.00 0.12 0.00 81 857.6
20260903051126 50 73 1.7 3.5 0.00 0.12 0.00 80 857.5
20260903050512 50 85 2.6 4.3 0.00 0.12 0.00 80 857.5
20260903045513 50 82 2.6 5.2 0.00 0.12 0.00 78 857.5
20260903044125 50 87 2.6 3.5 0.00 0.12 0.00 80 857.5
20260903043512 50 75 1.7 3.5 0.00 0.12 0.00 79 857.4
20260903042513 50 75 1.7 3.5 0.00 0.12 0.00 80 857.5
20260903041125 49 71 1.7 4.3 0.00 0.12 0.00 83 857.5
20260903040513 50 80 2.6 4.3 0.00 0.12 0.00 81 857.5
20260903035513 50 84 1.7 3.5 0.00 0.12 0.00 81 857.5
20260903034512 51 77 1.7 3.5 0.00 0.12 0.00 78 857.6
20260903033513 50 74 2.6 3.5 0.00 0.12 0.00 82 857.6
20260903032513 50 71 1.7 3.5 0.00 0.12 0.00 82 857.6
20260903031126 50 78 1.7 3.5 0.00 0.12 0.00 82 857.5
20260903030513 50 87 2.6 3.5 0.00 0.12 0.00 81 857.6
20260903025513 51 67 1.7 3.5 0.00 0.12 0.00 80 857.6
20260903024513 50 76 1.7 3.5 0.00 0.12 0.00 82 857.6
20260903023513 51 73 2.6 4.3 0.00 0.12 0.00 84 857.5
20260903022513 51 81 2.6 4.3 0.00 0.12 0.00 85 857.6
20260903021125 51 80 2.6 3.5 0.00 0.12 0.00 83 857.6
20260903020513 51 80 1.7 4.3 0.00 0.12 0.00 84 857.7
20260903015513 52 75 1.7 3.5 0.00 0.12 0.00 83 857.7
20260903014125 51 74 1.7 2.6 0.00 0.12 0.00 86 857.7
20260903013512 51 69 1.7 2.6 0.00 0.12 0.00 88 857.7
20260903012512 52 54 1.7 2.6 0.00 0.12 0.00 85 857.7
20260903011126 51 60 1.7 3.5 0.00 0.12 0.00 88 857.7
20260903010513 52 72 1.7 3.5 0.00 0.12 0.00 83 857.7
20260903005513 51 54 1.7 2.6 0.00 0.12 0.00 90 857.7
20260903004126 52 67 2.6 2.6 0.00 0.12 0.00 85 857.7
20260903003513 51 42 1.7 2.6 0.00 0.12 0.00 91 857.7
20260903002513 51 41 0.9 1.7 0.00 0.12 0.00 91 857.6
20260903001525 51 54 1.7 2.6 0.00 0.12 0.00 86 857.7
20260903000512 52 61 1.7 3.5 0.00 0.12 0.00 83 857.7
20260902235512 51 58 1.7 3.5 0.00 0.12 0.00 90 857.7
20260902234126 51 62 2.6 3.5 0.00 0.12 0.00 88 857.7
20260902233512 50 47 0.9 2.6 0.00 0.12 0.00 92 857.7
20260902232512 51 63 1.7 3.5 0.00 0.12 0.00 88 857.7
20260902231513 51 72 3.5 5.2 0.00 0.12 0.00 83 857.7
20260902230512 49 55 1.7 3.5 0.00 0.12 0.00 92 857.6
20260902225513 50 62 2.6 3.5 0.00 0.12 0.00 89 857.6
20260902224126 51 62 2.6 5.2 0.01 0.12 0.00 84 857.6
20260902223513 50 74 3.5 4.3 0.01 0.12 0.00 86 857.6
20260902222513 50 87 2.6 3.5 0.02 0.12 0.00 91 857.6
20260902221126 49 89 3.5 4.3 0.03 0.12 0.00 93 857.5
20260902220512 50 71 3.5 5.2 0.03 0.12 0.12 92 857.4
20260902215513 50 74 1.7 3.5 0.03 0.12 0.12 92 857.4
20260902214126 51 47 0.9 5.2 0.03 0.12 0.12 94 857.4
20260902213512 51 62 0.9 6.1 0.02 0.11 0.11 93 857.5
20260902211126 51 87 2.6 3.5 0.00 0.09 0.09 94 857.7
20260902210513 51 83 3.5 5.2 0.02 0.09 0.09 94 857.6
20260902205513 51 87 2.6 4.3 0.09 0.09 0.09 94 857.5
20260902204127 52 59 2.6 5.2 0.09 0.09 0.09 92 857.5
20260902203512 52 84 2.6 4.3 0.09 0.09 0.09 90 857.4
20260902202513 52 90 3.5 6.1 0.09 0.09 0.09 92 857.5
20260902201126 53 7 1.7 4.3 0.09 0.09 0.09 90 857.4
20260902200513 53 87 1.7 6.1 0.09 0.09 0.09 91 857.5
20260902195513 54 60 1.7 6.1 0.07 0.07 0.07 86 857.8
20260902194126 55 86 2.6 3.5 0.00 0.00 0.00 78 857.4
20260902193513 56 82 0.9 3.5 0.00 0.00 0.00 73 857.1
20260902192512 56 41 0.0 3.5 0.00 0.00 0.00 73 857.0
20260902191126 56 97 1.7 3.5 0.00 0.00 0.00 70 856.9
20260902190512 56 55 1.7 3.5 0.00 0.00 0.00 72 856.9
20260902185513 56 82 2.6 3.5 0.00 0.00 0.00 70 856.7
20260902184126 56 78 1.7 3.5 0.00 0.00 0.00 72 856.6
20260902183513 57 70 2.6 3.5 0.00 0.00 0.00 69 856.5
20260902182513 57 67 1.7 2.6 0.00 0.00 0.00 72 856.4
20260902181126 57 76 2.6 3.5 0.00 0.01 0.00 68 856.3
20260902180513 56 79 1.7 3.5 0.00 0.02 0.00 75 856.2
20260902175513 57 69 1.7 3.5 0.00 0.02 0.00 72 855.9
20260902174126 58 75 2.6 4.3 0.00 0.02 0.00 68 855.9
20260902173512 57 76 1.7 3.5 0.00 0.02 0.00 74 855.9
20260902172513 58 63 2.6 4.3 0.00 0.02 0.00 70 855.8
20260902171126 58 60 1.7 2.6 0.00 0.02 0.00 74 855.7
20260902170513 58 83 1.7 3.5 0.00 0.02 0.00 76 855.6
20260902165513 59 73 1.7 2.6 0.00 0.02 0.00 77 855.7
20260902164126 59 75 1.7 2.6 0.00 0.02 0.00 72 855.7
20260902163513 60 74 1.7 3.5 0.00 0.02 0.00 75 855.7
20260902162513 60 86 1.7 2.6 0.00 0.02 0.00 72 855.7
20260902161126 60 70 0.9 2.6 0.00 0.02 0.00 70 855.7
20260902160512 61 257 0.9 2.6 0.00 0.02 0.00 70 855.7
20260902155513 62 255 0.0 1.7 0.00 0.02 0.00 66 855.7
20260902154126 62 86 0.9 1.7 0.00 0.02 0.00 63 855.7
20260902153513 62 114 1.7 3.5 0.00 0.02 0.00 61 855.8
20260902152512 62 125 0.9 2.6 0.00 0.02 0.00 57 855.9
20260902151126 60 65 0.9 1.7 0.00 0.02 0.00 71 855.9
20260902150513 60 71 0.9 1.7 0.00 0.02 0.00 70 855.8
20260902145513 61 50 0.0 1.7 0.00 0.02 0.00 72 855.9
20260902144126 62 103 0.9 1.7 0.00 0.02 0.00 71 855.9
20260902143512 62 105 0.9 2.6 0.00 0.02 0.00 70 855.9
20260902142513 62 164 0.9 1.7 0.00 0.02 0.00 64 855.9
20260902141126 63 239 0.9 1.7 0.00 0.02 0.00 63 855.8
20260902140513 64 256 1.7 3.5 0.00 0.02 0.00 54 855.8
20260902135513 64 253 0.9 2.6 0.00 0.02 0.00 58 855.8
20260902134125 62 160 0.9 2.6 0.00 0.02 0.00 64 855.9
20260902133513 63 98 0.0 1.7 0.00 0.02 0.00 58 855.8
20260902132513 62 7 0.0 2.6 0.00 0.02 0.00 58 855.9
20260902131126 62 283 2.6 5.2 0.00 0.02 0.00 64 855.9
20260902130513 62 280 2.6 5.2 0.00 0.02 0.00 62 855.9
20260902125513 63 274 2.6 5.2 0.00 0.02 0.00 59 856.0
20260902124125 64 167 0.9 3.5 0.00 0.02 0.00 54 855.9
20260902123513 62 119 1.7 2.6 0.00 0.02 0.00 56 856.2
20260902122513 62 124 1.7 2.6 0.00 0.02 0.00 56 856.0
20260902121126 64 228 0.9 1.7 0.00 0.02 0.00 56 856.1
20260902120512 63 306 0.9 2.6 0.00 0.02 0.00 58 856.2
20260902115512 62 114 0.9 3.5 0.00 0.02 0.00 57 856.2
20260902114126 62 152 0.9 3.5 0.00 0.02 0.00 59 856.3
20260902113513 62 237 1.7 3.5 0.00 0.02 0.00 60 856.4
20260902112513 62 277 1.7 5.2 0.00 0.02 0.00 59 856.4
20260902111126 62 270 0.9 3.5 0.00 0.02 0.00 62 856.4
20260902110513 62 305 0.9 2.6 0.00 0.02 0.00 60 856.5
20260902105512 62 311 0.9 2.6 0.00 0.02 0.00 60 856.5
20260902104126 62 321 1.7 6.1 0.00 0.02 0.00 57 856.5
20260902103513 62 244 1.7 5.2 0.00 0.02 0.00 56 856.6
20260902102512 63 260 1.7 6.1 0.00 0.02 0.00 53 856.7
20260902101126 62 280 1.7 4.3 0.00 0.02 0.00 56 856.7
20260902100513 61 283 3.5 6.1 0.00 0.02 0.00 56 856.8
20260902095513 61 274 2.6 6.1 0.00 0.02 0.00 57 856.9
20260902094126 60 281 4.3 7.8 0.00 0.02 0.00 57 856.9
20260902093513 60 274 4.3 7.8 0.00 0.02 0.00 59 856.9
20260902092513 60 278 4.3 7.8 0.00 0.02 0.00 60 856.9
20260902091125 60 276 4.3 7.8 0.00 0.02 0.00 61 856.7
20260902090513 59 279 4.3 7.8 0.00 0.02 0.00 60 856.7